GFSFLT2_sfc_thetae_321.txt.gz
Theta_e
292 293 292 292 292 293 293 292 292 295 296 296 297 297 297 298 298 299 299 301 304 305 304 304 305 309 309
290 290 290 291 291 290 291 291 291 294 295 295 296 296 297 297 298 297 298 300 302 303 302 302 302 305 309
288 290 290 290 289 290 290 290 292 295 295 295 295 296 296 296 297 297 298 299 301 300 300 300 300 301 303
288 288 288 289 289 287 287 290 289 291 293 293 294 294 295 296 295 296 297 300 299 299 298 298 297 299 300
286 286 286 286 286 287 286 287 287 289 288 289 290 290 291 293 293 296 299 299 298 297 296 296 297 297 298
285 284 285 286 286 285 285 284 281 289 287 287 289 288 290 290 294 296 298 298 297 296 294 295 295 295 296
285 285 285 286 285 284 284 283 284 287 287 283 287 286 289 290 294 295 296 297 296 295 293 293 294 294 294
287 287 286 286 286 286 285 285 285 286 287 281 285 284 287 289 293 293 294 296 295 294 293 292 292 292 293
288 288 288 289 288 285 282 280 279 281 285 283 283 283 285 285 290 292 293 294 294 293 292 291 290 290 289
285 286 287 287 288 285 283 280 280 280 283 282 282 283 280 284 286 288 288 292 292 293 292 290 289 285 285
283 284 284 284 284 284 284 283 281 281 285 285 283 282 282 282 282 287 286 286 287 288 289 289 289 287 282
281 281 281 281 282 283 283 285 285 284 286 285 283 282 281 280 281 286 286 286 286 285 284 286 287 288 288
279 280 280 282 283 283 283 285 285 285 285 285 284 283 282 281 281 282 285 284 285 283 282 282 282 281 280
279 280 281 281 281 282 280 283 282 282 285 285 285 284 281 282 283 282 285 283 284 282 282 282 282 282 282
279 279 279 279 279 281 280 282 280 280 281 283 284 283 284 283 280 283 283 283 283 282 283 279 281 282 282
278 278 277 277 277 279 279 281 280 280 280 281 280 280 282 283 284 282 282 282 282 282 282 281 280 282 283
277 277 276 276 277 277 278 279 280 281 281 281 280 278 276 276 280 285 281 282 282 281 282 280 280 281 282

GFSFLT2_sfc_thetae_324.txt.gz
Theta_e
287 288 287 287 288 288 289 288 289 295 296 297 296 297 297 298 298 299 300 301 303 302 302 302 302 304 304
285 286 286 287 286 286 289 290 289 293 295 296 295 296 296 296 297 298 300 301 300 299 299 300 300 302 303
284 286 285 286 285 286 287 287 290 292 293 294 294 295 295 296 296 298 300 299 298 297 297 297 298 299 300
284 284 284 285 285 284 284 286 286 288 290 291 293 293 293 294 295 297 298 298 297 296 296 296 296 297 298
282 282 282 283 282 284 283 283 284 285 286 287 287 288 288 291 293 295 297 297 296 295 294 295 295 295 295
281 281 281 282 283 282 283 282 280 285 284 284 286 285 286 288 294 295 297 296 295 294 293 293 294 294 294
282 281 281 282 282 283 283 282 281 283 284 280 283 283 286 288 293 294 296 296 294 294 293 292 292 292 293
284 284 284 284 286 285 284 283 282 284 285 280 280 281 285 285 292 293 294 294 294 293 292 291 290 290 291
288 288 288 288 288 284 281 280 279 281 285 282 281 282 277 280 286 291 292 293 293 292 291 291 289 288 286
282 283 285 285 286 283 281 279 280 279 281 282 282 282 278 277 283 286 289 291 291 290 290 290 290 283 282
280 280 280 280 280 280 281 282 280 280 284 284 282 282 281 281 278 284 287 286 287 285 287 289 288 287 280
280 278 278 278 278 279 279 280 284 283 285 284 282 282 280 278 276 279 285 285 285 282 281 285 287 287 288
279 279 278 279 281 282 281 280 284 284 285 284 283 283 282 279 279 279 283 284 284 280 279 280 280 280 280
278 278 279 280 280 281 280 280 281 282 284 284 283 283 280 280 280 278 283 282 283 281 280 279 281 280 280
277 278 279 279 279 280 280 277 279 279 278 282 283 282 282 280 280 278 282 282 282 282 282 280 281 282 280
278 278 277 277 277 278 278 277 277 279 279 281 281 279 275 278 284 277 280 281 282 282 282 280 280 281 281
276 276 276 276 276 276 277 277 274 277 280 280 280 277 266 268 276 285 275 280 279 281 281 280 279 281 279

GFSFLT2_sfc_thetae_327.txt.gz
Theta_e
286 287 286 286 287 287 288 287 288 293 296 296 296 296 296 297 298 300 301 301 299 300 300 300 301 301 302
285 285 285 285 285 285 287 289 287 291 294 294 295 295 295 296 296 299 300 299 298 297 298 299 299 299 300
283 285 284 284 284 284 285 284 288 290 292 292 294 294 294 295 296 297 298 297 296 296 296 296 297 297 299
283 283 283 284 283 282 282 284 284 287 289 289 291 292 292 293 294 296 297 296 296 295 294 294 294 295 296
282 282 282 282 281 281 281 281 283 284 284 284 285 285 286 289 291 295 297 296 295 294 294 293 293 294 294
282 282 281 281 281 281 282 281 279 284 283 282 283 283 285 286 293 294 295 296 294 294 293 292 292 292 293
281 281 281 281 282 282 282 280 279 282 284 275 281 281 284 287 292 293 293 295 293 293 292 291 290 291 291
284 283 283 283 285 285 281 281 280 281 285 276 277 280 283 284 290 291 292 293 293 292 291 291 290 289 289
288 287 288 288 287 282 279 277 275 275 280 279 280 282 277 278 283 289 291 292 291 290 290 290 289 287 284
282 284 284 284 285 282 280 277 279 276 280 280 281 282 279 275 279 284 288 290 290 289 289 289 289 282 281
280 279 280 280 279 280 280 277 278 280 284 283 281 281 281 280 276 277 283 286 286 283 286 288 288 286 280
280 280 279 278 278 277 278 278 282 282 284 283 281 281 280 279 276 277 278 285 284 281 280 284 286 286 287
279 279 279 279 281 280 280 280 280 283 284 283 283 282 281 279 278 277 280 283 282 278 278 279 279 280 279
278 279 280 280 280 280 278 278 276 278 281 283 283 282 279 280 280 279 279 281 281 279 279 280 280 280 280
278 278 278 278 278 280 279 278 271 276 277 281 283 281 277 276 277 281 279 281 280 280 280 280 281 280 280
277 277 276 275 276 276 278 277 271 273 277 280 280 273 272 274 284 278 272 275 279 280 280 277 279 281 280
274 275 274 274 273 272 274 274 272 271 275 280 278 277 264 264 273 284 273 272 277 277 279 278 277 279 280

GFSFLT2_sfc_thetae_330.txt.gz
Theta_e
285 286 287 287 286 286 287 286 286 293 295 295 295 296 296 296 297 299 299 300 299 299 299 299 300 300 300
284 285 285 286 284 284 286 287 285 291 293 293 294 294 294 295 296 297 298 297 297 297 297 297 297 298 299
284 287 286 285 284 284 284 283 286 289 290 291 292 293 293 294 295 296 298 296 296 296 296 295 295 296 297
284 285 285 285 284 282 282 282 282 286 287 288 290 290 291 293 293 295 296 296 296 295 294 293 293 294 295
284 284 283 283 282 283 282 281 282 283 282 282 283 284 285 287 290 293 295 296 295 294 294 293 292 292 293
283 283 283 283 282 283 280 279 278 283 281 281 282 282 283 286 292 293 294 295 294 293 293 293 291 291 291
284 283 283 283 282 281 281 280 279 280 280 274 280 280 282 285 290 291 292 293 293 292 292 292 290 289 290
285 284 284 284 284 284 282 281 281 281 283 278 274 277 282 282 289 290 291 292 292 291 291 291 290 289 289
288 288 289 288 286 283 280 278 275 277 282 278 277 278 277 279 283 288 289 290 291 290 290 290 290 288 283
283 285 285 285 285 283 281 278 278 275 279 280 277 278 275 275 278 281 282 287 290 289 288 289 289 281 280
282 281 281 281 281 282 281 280 278 277 282 282 279 280 281 279 277 275 278 281 286 282 285 287 287 286 279
280 280 279 280 280 280 281 279 278 279 282 283 280 281 279 278 279 278 278 279 284 280 280 283 285 286 287
280 279 280 280 281 281 281 281 280 280 283 283 282 282 281 278 278 279 280 276 284 278 278 279 279 279 278
279 280 280 280 279 280 278 277 275 277 281 281 283 282 278 278 279 279 281 279 282 277 278 279 280 280 279
278 278 279 278 278 279 278 276 270 271 273 277 281 279 277 274 277 280 279 280 278 279 278 277 279 279 279
278 278 277 276 276 276 276 272 269 270 270 272 274 271 271 273 282 280 279 273 275 278 279 274 275 279 279
277 275 274 275 273 272 272 271 269 269 269 272 274 272 263 264 273 281 278 272 275 274 276 276 274 277 279

GFSFLT2_sfc_thetae_333.txt.gz
Theta_e
285 285 284 284 285 285 286 285 285 293 294 294 295 295 295 296 296 298 299 298 298 298 299 299 299 299 299
283 284 284 284 284 283 286 287 284 290 292 293 293 293 294 295 295 297 299 298 297 297 297 297 296 297 298
283 284 284 284 284 286 285 284 285 289 289 290 292 292 293 294 294 295 296 297 296 295 295 295 294 295 296
283 285 286 286 285 283 283 282 282 286 286 287 289 289 290 292 293 293 294 296 295 295 294 294 293 293 294
285 284 284 284 283 284 282 283 281 283 281 282 282 282 283 286 289 292 294 295 294 293 293 293 292 291 292
284 284 284 284 283 283 281 281 280 284 282 281 282 281 283 283 290 291 293 293 294 293 292 292 291 290 290
284 284 284 284 284 283 281 280 280 282 282 275 281 280 282 284 288 290 291 292 293 292 292 291 291 289 289
286 286 285 285 285 284 282 281 281 282 284 277 278 278 281 282 288 289 290 290 292 291 290 290 290 288 288
288 288 289 289 287 284 281 279 278 279 282 281 278 277 275 279 283 288 288 288 291 290 289 290 289 287 283
286 287 287 288 287 284 282 279 278 277 281 280 278 277 275 277 279 281 282 286 289 288 288 288 288 281 280
283 282 282 282 282 282 283 281 279 278 282 279 276 277 278 278 277 276 278 280 285 283 285 287 287 285 279
281 280 280 280 281 281 281 281 281 280 282 281 278 277 276 276 277 278 279 278 283 283 280 283 285 285 286
280 280 281 281 281 281 281 281 281 281 282 281 279 279 280 278 278 277 280 276 282 282 279 279 279 279 278
280 280 281 280 280 280 279 279 277 278 280 279 280 280 280 277 277 276 280 277 282 277 280 280 280 279 279
279 279 279 279 279 279 278 276 273 273 273 276 277 277 276 273 268 276 279 279 278 277 281 279 279 279 279
279 279 278 277 277 277 277 274 272 271 269 270 271 270 271 273 278 278 279 275 273 275 280 279 276 278 279
278 278 276 276 277 275 274 272 270 269 268 266 267 273 271 264 272 280 276 272 272 277 278 278 278 277 279